When you browse on this site, cookies collect data to enhance your experience and personalize the content and advertising you see.
Visit our Privacy Policy to learn more. By continuing to use the site, you agree to this use of cookies and data.
  • Em Portugal
  • Lista de países
  • Para 7 dias
  • Temperatura da água
  • Mapa do tempo
  • Widgets de tempo
  • user-avatar
    Iniciar Sessão

    Previsão horária em Gabú

    Hoje, 26 Fevereiro, Quarta-feira

    Tempo Temperatura Precipitação Vento Pressão Humidade
    00:00 +26°C° 0 mm 1 m/s 751 mmHg 24%
    01:00 +26°C° 0 mm 1 m/s 750 mmHg 25%
    02:00 +23°C° 0 mm 0 m/s 750 mmHg 27%
    03:00 +25°C° 0 mm 1 m/s 750 mmHg 27%
    04:00 +24°C° 0 mm 1 m/s 750 mmHg 26%
    05:00 +24°C° 0 mm 1 m/s 751 mmHg 26%
    06:00 +26°C° 0 mm 2 m/s 751 mmHg 23%
    07:00 +28°C° 0 mm 2 m/s 751 mmHg 19%
    08:00 +30°C° 0 mm 3 m/s 752 mmHg 16%
    09:00 +35°C° 0 mm 3 m/s 752 mmHg 13%
    10:00 +38°C° 0 mm 4 m/s 752 mmHg 10%
    11:00 +43°C° 0 mm 4 m/s 751 mmHg 6%
    12:00 +44°C° 0 mm 4 m/s 750 mmHg 6%
    13:00 +45°C° 0 mm 3 m/s 750 mmHg 6%
    14:00 +47°C° 0 mm 3 m/s 749 mmHg 6%
    15:00 +46°C° 0 mm 3 m/s 748 mmHg 6%
    16:00 +45°C° 0 mm 3 m/s 748 mmHg 6%
    17:00 +45°C° 0 mm 3 m/s 748 mmHg 6%
    18:00 +40°C° 0 mm 3 m/s 749 mmHg 9%
    19:00 +37°C° 0 mm 2 m/s 750 mmHg 12%
    20:00 +32°C° 0 mm 2 m/s 751 mmHg 15%
    21:00 +30°C° 0 mm 2 m/s 751 mmHg 35%
    22:00 +27°C° 0 mm 2 m/s 751 mmHg 54%
    23:00 +25°C° 0 mm 2 m/s 751 mmHg 74%

    Amanhã, 27 Fevereiro, Quinta-feira

    Tempo Temperatura Precipitação Vento Pressão Humidade
    00:00 +24°C° 0 mm 2 m/s 751 mmHg 80%
    01:00 +23°C° 0 mm 2 m/s 751 mmHg 85%
    02:00 +22°C° 0 mm 1 m/s 751 mmHg 91%
    03:00 +22°C° 0 mm 1 m/s 751 mmHg 92%
    04:00 +22°C° 0 mm 1 m/s 751 mmHg 92%
    05:00 +21°C° 0 mm 1 m/s 751 mmHg 93%
    06:00 +23°C° 0 mm 1 m/s 752 mmHg 83%
    07:00 +25°C° 0 mm 1 m/s 752 mmHg 73%
    08:00 +27°C° 0 mm 1 m/s 753 mmHg 62%
    09:00 +32°C° 0 mm 1 m/s 753 mmHg 47%
    10:00 +37°C° 0 mm 1 m/s 753 mmHg 32%
    11:00 +43°C° 0 mm 1 m/s 752 mmHg 17%
    12:00 +44°C° 0 mm 1 m/s 751 mmHg 15%
    13:00 +45°C° 0 mm 1 m/s 751 mmHg 13%
    14:00 +46°C° 0 mm 1 m/s 750 mmHg 11%
    15:00 +46°C° 0 mm 2 m/s 749 mmHg 11%
    16:00 +45°C° 0 mm 2 m/s 749 mmHg 11%
    17:00 +43°C° 0 mm 2 m/s 748 mmHg 10%
    18:00 +40°C° 0 mm 2 m/s 749 mmHg 12%
    19:00 +37°C° 0 mm 2 m/s 750 mmHg 13%
    20:00 +34°C° 0 mm 2 m/s 751 mmHg 15%
    21:00 +30°C° 0 mm 2 m/s 751 mmHg 31%
    22:00 +28°C° 0 mm 2 m/s 752 mmHg 48%
    23:00 +26°C° 0 mm 2 m/s 752 mmHg 64%

    Depois de amanhã, 28 Fevereiro, Sexta-feira

    Tempo Temperatura Precipitação Vento Pressão Humidade
    00:00 +25°C° 0 mm 2 m/s 752 mmHg 71%
    01:00 +23°C° 0 mm 2 m/s 752 mmHg 78%
    02:00 +21°C° 0 mm 2 m/s 752 mmHg 85%
    03:00 +21°C° 0 mm 2 m/s 752 mmHg 88%
    04:00 +21°C° 0 mm 1 m/s 752 mmHg 90%
    05:00 +21°C° 0 mm 1 m/s 752 mmHg 93%
    06:00 +23°C° 0 mm 1 m/s 752 mmHg 85%
    07:00 +24°C° 0 mm 2 m/s 753 mmHg 78%
    08:00 +26°C° 0 mm 2 m/s 754 mmHg 70%
    09:00 +31°C° 0 mm 1 m/s 753 mmHg 52%
    10:00 +36°C° 0 mm 1 m/s 753 mmHg 34%
    11:00 +42°C° 0 mm 1 m/s 753 mmHg 16%
    12:00 +44°C° 0 mm 1 m/s 752 mmHg 13%
    13:00 +46°C° 0 mm 1 m/s 751 mmHg 10%
    14:00 +48°C° 0 mm 1 m/s 750 mmHg 7%
    15:00 +46°C° 0 mm 1 m/s 750 mmHg 8%
    16:00 +44°C° 0 mm 1 m/s 750 mmHg 8%
    17:00 +42°C° 0 mm 1 m/s 749 mmHg 9%
    18:00 +39°C° 0 mm 2 m/s 750 mmHg 16%
    19:00 +36°C° 0 mm 3 m/s 751 mmHg 23%
    20:00 +31°C° 0 mm 3 m/s 751 mmHg 30%
    21:00 +29°C° 0 mm 3 m/s 752 mmHg 40%
    22:00 +27°C° 0 mm 2 m/s 752 mmHg 50%
    23:00 +25°C° 0 mm 2 m/s 753 mmHg 60%

    29 Fevereiro, Sábado

    Tempo Temperatura Precipitação Vento Pressão Humidade
    00:00 +24°C° 0 mm 2 m/s 752 mmHg 64%
    01:00 +23°C° 0 mm 2 m/s 752 mmHg 68%
    02:00 +20°C° 0 mm 2 m/s 752 mmHg 71%
    03:00 +20°C° 0 mm 2 m/s 752 mmHg 74%
    04:00 +19°C° 0 mm 2 m/s 752 mmHg 77%
    05:00 +20°C° 0 mm 1 m/s 752 mmHg 79%
    06:00 +22°C° 0 mm 1 m/s 752 mmHg 70%
    07:00 +24°C° 0 mm 1 m/s 753 mmHg 61%
    08:00 +26°C° 0 mm 1 m/s 753 mmHg 51%
    09:00 +31°C° 0 mm 1 m/s 753 mmHg 39%
    10:00 +36°C° 0 mm 1 m/s 753 mmHg 26%
    11:00 +40°C° 0 mm 0 m/s 752 mmHg 13%
    12:00 +44°C° 0 mm 1 m/s 751 mmHg 11%
    13:00 +45°C° 0 mm 1 m/s 750 mmHg 9%
    14:00 +46°C° 0 mm 1 m/s 749 mmHg 8%
    15:00 +45°C° 0 mm 1 m/s 749 mmHg 8%
    16:00 +41°C° 0 mm 0 m/s 749 mmHg 8%
    17:00 +40°C° 0 mm 0 m/s 749 mmHg 9%
    18:00 +37°C° 0 mm 0 m/s 749 mmHg 11%
    19:00 +35°C° 0 mm 1 m/s 750 mmHg 13%
    20:00 +32°C° 0 mm 1 m/s 750 mmHg 16%
    21:00 +30°C° 0 mm 1 m/s 750 mmHg 24%
    22:00 +27°C° 0 mm 2 m/s 751 mmHg 33%
    23:00 +25°C° 0 mm 2 m/s 751 mmHg 42%

    1 Março, Domingo

    Tempo Temperatura Precipitação Vento Pressão Humidade
    00:00 +24°C° 0 mm 2 m/s 751 mmHg 49%
    01:00 +23°C° 0 mm 1 m/s 751 mmHg 57%
    02:00 +21°C° 0 mm 1 m/s 750 mmHg 64%
    03:00 +21°C° 0 mm 1 m/s 750 mmHg 67%
    04:00 +20°C° 0 mm 1 m/s 750 mmHg 71%
    05:00 +20°C° 0 mm 1 m/s 750 mmHg 74%
    06:00 +22°C° 0 mm 1 m/s 751 mmHg 65%
    07:00 +24°C° 0 mm 1 m/s 751 mmHg 57%
    08:00 +27°C° 0 mm 1 m/s 752 mmHg 48%
    09:00 +31°C° 0 mm 1 m/s 751 mmHg 36%
    10:00 +35°C° 0 mm 1 m/s 751 mmHg 25%
    11:00 +41°C° 0 mm 2 m/s 751 mmHg 13%
    12:00 +42°C° 0 mm 2 m/s 750 mmHg 11%
    13:00 +45°C° 0 mm 2 m/s 749 mmHg 9%
    14:00 +47°C° 0 mm 2 m/s 748 mmHg 7%
    15:00 +45°C° 0 mm 1 m/s 748 mmHg 7%
    16:00 +44°C° 0 mm 1 m/s 748 mmHg 7%
    17:00 +44°C° 0 mm 1 m/s 747 mmHg 7%
    18:00 +40°C° 0 mm 2 m/s 748 mmHg 16%
    19:00 +36°C° 0 mm 3 m/s 749 mmHg 24%
    20:00 +33°C° 0 mm 4 m/s 750 mmHg 32%
    21:00 +29°C° 0 mm 3 m/s 750 mmHg 46%
    22:00 +27°C° 0 mm 3 m/s 751 mmHg 59%
    23:00 +25°C° 0 mm 2 m/s 751 mmHg 73%

    2 Março, Segunda-feira

    Tempo Temperatura Precipitação Vento Pressão Humidade
    00:00 +24°C° 0 mm 2 m/s 751 mmHg 79%
    01:00 +23°C° 0 mm 2 m/s 751 mmHg 85%
    02:00 +21°C° 0 mm 2 m/s 751 mmHg 91%
    03:00 +21°C° 0 mm 2 m/s 751 mmHg 92%
    04:00 +21°C° 0 mm 2 m/s 751 mmHg 93%
    05:00 +20°C° 0 mm 2 m/s 751 mmHg 95%
    06:00 +23°C° 0 mm 2 m/s 751 mmHg 87%
    07:00 +24°C° 0 mm 2 m/s 752 mmHg 79%
    08:00 +26°C° 0 mm 2 m/s 752 mmHg 70%
    09:00 +30°C° 0 mm 2 m/s 752 mmHg 54%
    10:00 +35°C° 0 mm 1 m/s 752 mmHg 38%
    11:00 +40°C° 0 mm 1 m/s 752 mmHg 22%
    12:00 +42°C° 0 mm 1 m/s 751 mmHg 18%
    13:00 +44°C° 0 mm 1 m/s 750 mmHg 15%
    14:00 +46°C° 0 mm 1 m/s 749 mmHg 11%
    15:00 +45°C° 0 mm 1 m/s 749 mmHg 11%
    16:00 +44°C° 0 mm 1 m/s 749 mmHg 12%
    17:00 +43°C° 0 mm 1 m/s 749 mmHg 12%
    18:00 +39°C° 0 mm 2 m/s 749 mmHg 21%
    19:00 +36°C° 0 mm 2 m/s 750 mmHg 30%
    20:00 +31°C° 0 mm 3 m/s 750 mmHg 38%
    21:00 +29°C° 0 mm 3 m/s 751 mmHg 47%
    22:00 +27°C° 0 mm 3 m/s 751 mmHg 56%
    23:00 +25°C° 0 mm 3 m/s 752 mmHg 65%
    Mostrar mais